User: anonymous   Login
Location: Unspecified
(0.0000°N, 0.0000°E)
Time: 11:13:32
(UTC+00:00)
Language:

KAITUO 1B - Orbit

View from above orbital plane
View from above orbital plane
View from above satellite
View from above satellite

Ground track
Ground track

The orbit data is extracted from the following two-line orbital elements,

1 40912U 15049P   19142.04294692  .00000957  00000-0  48190-4 0  9995
2 40912  97.4492 149.7565 0013202 269.7574 156.3731 15.19543028203119
Epoch (UTC): 22 May 2019 01:01:50
Eccentricity: 0.0013202
inclination: 97.4492°
perigee height: 498 km
apogee height: 516 km
right ascension of ascending node: 149.7565°
argument of perigee: 269.7574°
revolutions per day: 15.19543028
mean anomaly at epoch: 156.3731°
orbit number at epoch: 20311

The dashed part of the orbit path shows where the satellite is in the earth's shadow,  

DLR